Location: Observatoire du C�gep de Trois-Rivi�res � Champlain
(46.4753°N, 72.3231°W)
Time: 13:08:37
(UTC-04:00)

OTV 5 (USA 277) - Visible Passes

Search period start: 22 June 2018 00:00
Search period end: 02 July 2018 00:00
Orbit: 313 x 320 km, 54.5° (Epoch: 21 June)

Date Brightness Start Highest point End Pass type
(mag) Time Alt. Az. Time Alt. Az. Time Alt. Az.
22 Jun ? 01:19:14 10° NW 01:21:51 47° NNE 01:21:51 47° NNE visible
22 Jun ? 22:25:02 10° NW 22:26:44 15° N 22:28:27 10° NE visible
22 Jun ? 23:59:35 10° NW 00:01:46 21° NNE 00:03:50 11° ENE visible
23 Jun ? 01:33:37 10° WNW 01:34:38 20° WNW 01:34:38 20° WNW visible
23 Jun ? 22:39:45 10° NW 22:41:29 15° N 22:43:13 10° NE visible
24 Jun ? 00:13:52 10° NW 00:16:22 33° NNE 00:16:52 30° NE visible
24 Jun ? 22:54:12 10° NW 22:56:12 18° NNE 22:58:11 10° ENE visible
25 Jun ? 00:28:11 10° NW 00:30:05 40° NW 00:30:05 40° NW visible
25 Jun ? 21:34:12 10° NW 21:35:52 15° N 21:37:33 10° NE visible
25 Jun ? 23:08:30 10° NW 23:10:51 26° NNE 23:12:34 14° ENE visible
26 Jun ? 00:42:39 10° WNW 00:43:23 16° WNW 00:43:23 16° WNW visible
26 Jun ? 21:48:46 10° NW 21:50:36 16° N 21:52:27 10° NE visible
26 Jun ? 23:22:47 10° NW 23:25:25 46° NNE 23:25:57 39° ENE visible
27 Jun ? 22:03:08 10° NW 22:05:18 21° NNE 22:07:28 10° ENE visible
27 Jun ? 23:37:09 10° WNW 23:39:24 55° WNW 23:39:24 55° WNW visible
28 Jun ? 22:17:24 10° NW 22:19:54 33° NNE 22:22:03 13° E visible
28 Jun ? 23:51:47 10° WNW 23:52:54 19° W 23:52:54 19° W visible
29 Jun ? 22:31:43 10° NW 22:34:25 69° NNE 22:35:36 29° ESE visible
30 Jun ? 22:46:11 10° WNW 22:48:48 46° SW 22:49:12 41° S visible
01 Jul ? 21:26:19 10° NW 21:28:57 45° NNE 21:31:33 10° ESE visible
01 Jul ? 23:01:03 10° W 23:02:51 18° SW 23:02:51 18° SW visible
